Time,TemperatureF,DewpointF,PressureIn,WindDirection,WindDirectionDegrees,WindSpeedMPH,WindSpeedGustMPH,Humidity,HourlyPrecipIn,Conditions,Clouds,dailyrainin,SoftwareType,DateUTC
2013-02-06 00:01:00,35.0,31.0,-100.00,NE,50,7.0,11.0,86,-99.99,,,-99.99,,2013-02-06 06:01:00,
2013-02-06 00:11:00,35.0,31.0,-100.00,NE,50,6.0,11.0,86,-99.99,,,-99.99,,2013-02-06 06:11:00,
2013-02-06 00:21:00,35.0,31.0,-100.00,NE,45,8.0,10.0,86,-99.99,,,-99.99,,2013-02-06 06:21:00,
2013-02-06 00:32:00,35.0,31.0,-100.00,NE,55,6.0,10.0,85,-99.99,,,-99.99,,2013-02-06 06:32:00,
2013-02-06 00:42:00,35.0,31.0,-100.00,NE,55,6.0,10.0,85,-99.99,,,-99.99,,2013-02-06 06:42:00,
2013-02-06 00:52:00,35.0,30.0,-100.00,NE,40,6.0,8.0,85,-99.99,,,-99.99,,2013-02-06 06:52:00,
2013-02-06 01:01:00,35.0,30.0,-100.00,NE,40,6.0,8.0,85,-99.99,,,-99.99,,2013-02-06 07:01:00,
2013-02-06 01:11:00,34.0,30.0,-100.00,NE,45,5.0,6.0,85,-99.99,,,-99.99,,2013-02-06 07:11:00,
2013-02-06 01:22:00,34.0,30.0,-100.00,ENE,60,4.0,7.0,85,-99.99,,,-99.99,,2013-02-06 07:22:00,
2013-02-06 01:32:00,34.0,30.0,-100.00,ENE,60,4.0,7.0,85,-99.99,,,-99.99,,2013-02-06 07:32:00,
2013-02-06 01:42:00,34.0,30.0,-100.00,NE,55,1.0,4.0,85,-99.99,,,-99.99,,2013-02-06 07:42:00,
2013-02-06 01:52:00,34.0,30.0,-100.00,NE,45,2.0,4.0,86,-99.99,,,-99.99,,2013-02-06 07:52:00,
2013-02-06 02:01:00,34.0,30.0,-100.00,NE,45,2.0,4.0,86,-99.99,,,-99.99,,2013-02-06 08:01:00,
2013-02-06 02:11:00,33.0,30.0,-100.00,NE,45,1.0,2.0,86,-99.99,,,-99.99,,2013-02-06 08:11:00,
2013-02-06 02:21:00,33.0,30.0,-100.00,North,355,1.0,1.0,87,-99.99,,,-99.99,,2013-02-06 08:21:00,
2013-02-06 02:31:00,33.0,30.0,-100.00,North,355,1.0,1.0,87,-99.99,,,-99.99,,2013-02-06 08:31:00,
2013-02-06 02:42:00,33.0,30.0,-100.00,North,0,1.0,4.0,87,-99.99,,,-99.99,,2013-02-06 08:42:00,
2013-02-06 02:53:00,33.0,30.0,-100.00,North,0,1.0,2.0,88,-99.99,,,-99.99,,2013-02-06 08:53:00,
2013-02-06 03:01:00,33.0,30.0,-100.00,North,0,1.0,2.0,88,-99.99,,,-99.99,,2013-02-06 09:01:00,
2013-02-06 03:11:00,33.0,29.0,-100.00,NNE,25,1.0,4.0,88,-99.99,,,-99.99,,2013-02-06 09:11:00,
2013-02-06 03:21:00,31.0,29.0,-100.00,SSE,160,1.0,2.0,89,-99.99,,,-99.99,,2013-02-06 09:21:00,
2013-02-06 03:31:00,31.0,29.0,-100.00,SSE,160,1.0,2.0,89,-99.99,,,-99.99,,2013-02-06 09:31:00,
2013-02-06 03:41:00,31.0,29.0,-100.00,SSE,165,0.0,2.0,91,-99.99,,,-99.99,,2013-02-06 09:41:00,
2013-02-06 03:52:00,30.0,28.0,-100.00,WNW,290,0.0,0.0,92,-99.99,,,-99.99,,2013-02-06 09:52:00,
2013-02-06 04:01:00,30.0,28.0,-100.00,WNW,290,0.0,0.0,92,-99.99,,,-99.99,,2013-02-06 10:01:00,
2013-02-06 04:11:00,29.0,28.0,-100.00,West,270,0.0,2.0,93,-99.99,,,-99.99,,2013-02-06 10:11:00,
2013-02-06 04:21:00,29.0,28.0,-100.00,WSW,250,1.0,1.0,94,-99.99,,,-99.99,,2013-02-06 10:21:00,
2013-02-06 04:31:00,29.0,28.0,-100.00,WSW,250,1.0,1.0,94,-99.99,,,-99.99,,2013-02-06 10:31:00,
2013-02-06 04:42:00,29.0,28.0,-100.00,SW,230,1.0,3.0,95,-99.99,,,-99.99,,2013-02-06 10:42:00,
2013-02-06 04:52:00,29.0,28.0,-100.00,SW,230,1.0,3.0,95,-99.99,,,-99.99,,2013-02-06 10:52:00,
2013-02-06 05:11:00,28.0,27.0,-100.00,South,170,3.0,3.0,96,-99.99,,,-99.99,,2013-02-06 11:11:00,
2013-02-06 05:22:00,28.0,27.0,-100.00,ESE,120,1.0,2.0,96,-99.99,,,-99.99,,2013-02-06 11:22:00,
2013-02-06 05:32:00,28.0,27.0,-100.00,ESE,120,1.0,2.0,96,-99.99,,,-99.99,,2013-02-06 11:32:00,
2013-02-06 05:42:00,27.0,27.0,-100.00,SSE,150,0.0,1.0,97,-99.99,,,-99.99,,2013-02-06 11:42:00,
2013-02-06 05:53:00,28.0,27.0,-100.00,NE,55,0.0,1.0,97,-99.99,,,-99.99,,2013-02-06 11:53:00,
2013-02-06 06:02:00,28.0,27.0,-100.00,NE,55,0.0,1.0,97,-99.99,,,-99.99,,2013-02-06 12:02:00,
2013-02-06 06:12:00,27.0,26.0,-100.00,SE,125,2.0,4.0,98,-99.99,,,-99.99,,2013-02-06 12:12:00,
2013-02-06 06:22:00,27.0,26.0,-100.00,NE,45,1.0,3.0,98,-99.99,,,-99.99,,2013-02-06 12:22:00,
2013-02-06 06:31:00,27.0,27.0,-100.00,West,270,0.0,5.0,99,-99.99,,,-99.99,,2013-02-06 12:31:00,
2013-02-06 06:32:00,27.0,26.0,-100.00,NE,45,1.0,3.0,98,-99.99,,,-99.99,,2013-02-06 12:32:00,
2013-02-06 06:42:00,27.0,27.0,-100.00,SSE,165,1.0,2.0,99,-99.99,,,-99.99,,2013-02-06 12:42:00,
2013-02-06 06:52:00,27.0,27.0,-100.00,SSE,165,4.0,5.0,99,-99.99,,,-99.99,,2013-02-06 12:52:00,
2013-02-06 07:01:00,27.0,27.0,-100.00,SSE,165,4.0,5.0,99,-99.99,,,-99.99,,2013-02-06 13:01:00,
2013-02-06 07:12:00,27.0,27.0,-100.00,West,270,0.0,5.0,99,-99.99,,,-99.99,,2013-02-06 13:12:00,
2013-02-06 07:22:00,27.0,27.0,-100.00,West,270,0.0,5.0,99,-99.99,,,-99.99,,2013-02-06 13:22:00,
2013-02-06 08:32:00,29.0,29.0,-100.00,West,260,0.0,2.0,99,-99.99,,,-99.99,,2013-02-06 14:32:00,
2013-02-06 08:42:00,29.0,29.0,-100.00,West,260,0.0,2.0,99,-99.99,,,-99.99,,2013-02-06 14:42:00,
2013-02-06 08:52:00,30.0,29.0,-100.00,West,275,1.0,3.0,99,-99.99,,,-99.99,,2013-02-06 14:52:00,
2013-02-06 09:01:00,30.0,29.0,-100.00,West,275,1.0,3.0,99,-99.99,,,-99.99,,2013-02-06 15:01:00,
2013-02-06 09:11:00,31.0,30.0,-100.00,West,265,4.0,5.0,99,-99.99,,,-99.99,,2013-02-06 15:11:00,
2013-02-06 09:21:00,31.0,31.0,-100.00,SW,230,2.0,4.0,99,-99.99,,,-99.99,,2013-02-06 15:21:00,
2013-02-06 09:31:00,31.0,31.0,-100.00,WNW,290,2.0,2.0,97,-99.99,,,-99.99,,2013-02-06 15:31:00,
2013-02-06 09:42:00,31.0,31.0,-100.00,WNW,290,2.0,2.0,97,-99.99,,,-99.99,,2013-02-06 15:42:00,
2013-02-06 09:52:00,32.0,31.0,-100.00,WNW,290,4.0,4.0,96,-99.99,,,-99.99,,2013-02-06 15:52:00,
2013-02-06 10:01:00,32.0,31.0,-100.00,WNW,290,4.0,4.0,96,-99.99,,,-99.99,,2013-02-06 16:01:00,
2013-02-06 10:11:00,33.0,32.0,-100.00,WSW,255,2.0,4.0,96,-99.99,,,-99.99,,2013-02-06 16:11:00,
2013-02-06 10:21:00,35.0,32.0,-100.00,West,280,6.0,9.0,92,-99.99,,,-99.99,,2013-02-06 16:21:00,
2013-02-06 10:32:00,35.0,32.0,-100.00,West,280,6.0,9.0,92,-99.99,,,-99.99,,2013-02-06 16:32:00,
2013-02-06 10:42:00,37.0,34.0,-100.00,SW,230,9.0,13.0,87,-99.99,,,-99.99,,2013-02-06 16:42:00,
2013-02-06 10:52:00,38.0,33.0,-100.00,SW,215,7.0,16.0,80,-99.99,,,-99.99,,2013-02-06 16:52:00,
2013-02-06 11:02:00,38.0,33.0,-100.00,SW,215,7.0,16.0,80,-99.99,,,-99.99,,2013-02-06 17:02:00,
2013-02-06 11:11:00,39.0,32.0,-100.00,SW,225,11.0,14.0,76,-99.99,,,-99.99,,2013-02-06 17:11:00,
2013-02-06 11:21:00,40.0,32.0,-100.00,SW,235,7.0,16.0,72,-99.99,,,-99.99,,2013-02-06 17:21:00,
2013-02-06 11:32:00,40.0,32.0,-100.00,SW,235,7.0,16.0,72,-99.99,,,-99.99,,2013-02-06 17:32:00,
2013-02-06 11:42:00,40.0,32.0,-100.00,WSW,245,7.0,16.0,73,-99.99,,,-99.99,,2013-02-06 17:42:00,
2013-02-06 11:52:00,41.0,32.0,-100.00,West,260,11.0,14.0,70,-99.99,,,-99.99,,2013-02-06 17:52:00,
2013-02-06 12:01:00,41.0,32.0,-100.00,West,260,11.0,14.0,70,-99.99,,,-99.99,,2013-02-06 18:01:00,
2013-02-06 12:11:00,41.0,33.0,-100.00,WSW,245,6.0,19.0,71,-99.99,,,-99.99,,2013-02-06 18:11:00,
2013-02-06 12:23:00,41.0,32.0,-100.00,West,260,5.0,11.0,70,-99.99,,,-99.99,,2013-02-06 18:23:00,
2013-02-06 12:32:00,41.0,32.0,-100.00,West,260,5.0,11.0,70,-99.99,,,-99.99,,2013-02-06 18:32:00,
2013-02-06 12:42:00,41.0,32.0,-100.00,West,265,9.0,13.0,71,-99.99,,,-99.99,,2013-02-06 18:42:00,
2013-02-06 12:52:00,42.0,33.0,-100.00,West,260,8.0,11.0,72,-99.99,,,-99.99,,2013-02-06 18:52:00,
2013-02-06 13:01:00,42.0,33.0,-100.00,West,260,8.0,11.0,72,-99.99,,,-99.99,,2013-02-06 19:01:00,
2013-02-06 13:11:00,41.0,33.0,-100.00,West,280,8.0,13.0,73,-99.99,,,-99.99,,2013-02-06 19:11:00,
2013-02-06 13:21:00,41.0,34.0,-100.00,West,275,9.0,11.0,75,-99.99,,,-99.99,,2013-02-06 19:21:00,
2013-02-06 13:32:00,41.0,34.0,-100.00,West,275,9.0,11.0,75,-99.99,,,-99.99,,2013-02-06 19:32:00,
2013-02-06 13:42:00,42.0,34.0,-100.00,WSW,250,8.0,15.0,72,-99.99,,,-99.99,,2013-02-06 19:42:00,
2013-02-06 13:52:00,43.0,34.0,-100.00,West,260,8.0,14.0,69,-99.99,,,-99.99,,2013-02-06 19:52:00,
2013-02-06 14:01:00,43.0,34.0,-100.00,West,260,8.0,14.0,69,-99.99,,,-99.99,,2013-02-06 20:01:00,
2013-02-06 14:11:00,43.0,34.0,-100.00,WSW,255,9.0,15.0,70,-99.99,,,-99.99,,2013-02-06 20:11:00,
2013-02-06 14:21:00,45.0,35.0,-100.00,West,265,7.0,16.0,68,-99.99,,,-99.99,,2013-02-06 20:21:00,
2013-02-06 14:32:00,45.0,35.0,-100.00,West,265,7.0,16.0,68,-99.99,,,-99.99,,2013-02-06 20:32:00,
2013-02-06 14:42:00,45.0,34.0,-100.00,WSW,250,9.0,14.0,64,-99.99,,,-99.99,,2013-02-06 20:42:00,
2013-02-06 14:52:00,44.0,34.0,-100.00,WSW,245,9.0,16.0,66,-99.99,,,-99.99,,2013-02-06 20:52:00,
2013-02-06 15:02:00,44.0,34.0,-100.00,WSW,245,9.0,16.0,66,-99.99,,,-99.99,,2013-02-06 21:02:00,
2013-02-06 15:11:00,44.0,34.0,-100.00,WSW,250,9.0,15.0,68,-99.99,,,-99.99,,2013-02-06 21:11:00,
2013-02-06 15:21:00,46.0,34.0,-100.00,WSW,250,11.0,14.0,64,-99.99,,,-99.99,,2013-02-06 21:21:00,
2013-02-06 15:32:00,46.0,34.0,-100.00,WSW,250,11.0,14.0,64,-99.99,,,-99.99,,2013-02-06 21:32:00,
2013-02-06 15:42:00,46.0,34.0,-100.00,SW,230,7.0,18.0,64,-99.99,,,-99.99,,2013-02-06 21:42:00,
2013-02-06 15:52:00,46.0,35.0,-100.00,SW,235,10.0,14.0,64,-99.99,,,-99.99,,2013-02-06 21:52:00,
2013-02-06 16:01:00,46.0,35.0,-100.00,SW,235,10.0,14.0,64,-99.99,,,-99.99,,2013-02-06 22:01:00,
2013-02-06 16:11:00,47.0,34.0,-100.00,WSW,245,6.0,14.0,62,-99.99,,,-99.99,,2013-02-06 22:11:00,
2013-02-06 16:21:00,45.0,34.0,-100.00,SW,225,9.0,14.0,64,-99.99,,,-99.99,,2013-02-06 22:21:00,
2013-02-06 16:31:00,45.0,34.0,-100.00,SW,225,9.0,14.0,64,-99.99,,,-99.99,,2013-02-06 22:31:00,
2013-02-06 16:42:00,45.0,34.0,-100.00,SW,215,6.0,14.0,64,-99.99,,,-99.99,,2013-02-06 22:42:00,
2013-02-06 16:52:00,45.0,34.0,-100.00,WSW,240,2.0,11.0,64,-99.99,,,-99.99,,2013-02-06 22:52:00,
2013-02-06 17:01:00,45.0,34.0,-100.00,WSW,240,2.0,11.0,64,-99.99,,,-99.99,,2013-02-06 23:01:00,
2013-02-06 17:11:00,46.0,34.0,-100.00,SW,215,5.0,14.0,63,-99.99,,,-99.99,,2013-02-06 23:11:00,
2013-02-06 17:21:00,45.0,34.0,-100.00,South,185,6.0,11.0,65,-99.99,,,-99.99,,2013-02-06 23:21:00,
2013-02-06 17:32:00,45.0,34.0,-100.00,South,185,6.0,11.0,65,-99.99,,,-99.99,,2013-02-06 23:32:00,
2013-02-06 17:42:00,44.0,34.0,-100.00,South,180,5.0,11.0,68,-99.99,,,-99.99,,2013-02-06 23:42:00,
2013-02-06 17:52:00,44.0,34.0,-100.00,South,175,5.0,8.0,69,-99.99,,,-99.99,,2013-02-06 23:52:00,
2013-02-06 18:01:00,44.0,34.0,-100.00,South,175,5.0,8.0,69,-99.99,,,-99.99,,2013-02-07 00:01:00,
2013-02-06 18:11:00,44.0,35.0,-100.00,SW,215,5.0,13.0,72,-99.99,,,-99.99,,2013-02-07 00:11:00,
2013-02-06 18:21:00,43.0,35.0,-100.00,SW,230,5.0,11.0,73,-99.99,,,-99.99,,2013-02-07 00:21:00,
2013-02-06 18:31:00,42.0,35.0,-100.00,SW,230,6.0,11.0,77,-99.99,,,-99.99,,2013-02-07 00:31:00,
2013-02-06 18:32:00,43.0,35.0,-100.00,SW,230,5.0,11.0,73,-99.99,,,-99.99,,2013-02-07 00:32:00,
2013-02-06 18:42:00,43.0,35.0,-100.00,WSW,240,6.0,11.0,75,-99.99,,,-99.99,,2013-02-07 00:42:00,
2013-02-06 18:52:00,42.0,35.0,-100.00,SW,230,8.0,14.0,76,-99.99,,,-99.99,,2013-02-07 00:52:00,
2013-02-06 19:01:00,42.0,35.0,-100.00,SW,230,8.0,14.0,76,-99.99,,,-99.99,,2013-02-07 01:01:00,
2013-02-06 19:11:00,42.0,35.0,-100.00,SW,230,6.0,11.0,77,-99.99,,,-99.99,,2013-02-07 01:11:00,
2013-02-06 19:21:00,42.0,35.0,-100.00,SW,230,6.0,11.0,77,-99.99,,,-99.99,,2013-02-07 01:21:00,
2013-02-06 19:42:00,41.0,35.0,-100.00,SSW,205,6.0,11.0,78,-99.99,,,-99.99,,2013-02-07 01:42:00,
2013-02-06 19:52:00,41.0,35.0,-100.00,South,190,5.0,9.0,78,-99.99,,,-99.99,,2013-02-07 01:52:00,
2013-02-06 20:01:00,41.0,35.0,-100.00,South,190,5.0,9.0,78,-99.99,,,-99.99,,2013-02-07 02:01:00,
2013-02-06 20:11:00,41.0,35.0,-100.00,SSW,205,6.0,13.0,79,-99.99,,,-99.99,,2013-02-07 02:11:00,
2013-02-06 20:21:00,40.0,35.0,-100.00,SSW,205,6.0,13.0,80,-99.99,,,-99.99,,2013-02-07 02:21:00,
2013-02-06 20:32:00,40.0,35.0,-100.00,SSW,205,6.0,13.0,80,-99.99,,,-99.99,,2013-02-07 02:32:00,
2013-02-06 20:41:00,40.0,35.0,-100.00,SSW,205,6.0,13.0,80,-99.99,,,-99.99,,2013-02-07 02:41:00,
2013-02-06 21:02:00,40.0,35.0,-100.00,South,190,9.0,16.0,82,-99.99,,,-99.99,,2013-02-07 03:02:00,
2013-02-06 21:11:00,39.0,35.0,-100.00,SW,220,6.0,16.0,84,-99.99,,,-99.99,,2013-02-07 03:11:00,
2013-02-06 21:21:00,39.0,35.0,-100.00,SSW,205,9.0,16.0,85,-99.99,,,-99.99,,2013-02-07 03:21:00,
2013-02-06 21:31:00,39.0,35.0,-100.00,SSW,205,9.0,16.0,85,-99.99,,,-99.99,,2013-02-07 03:31:00,
2013-02-06 21:42:00,39.0,35.0,-100.00,SW,220,11.0,21.0,86,-99.99,,,-99.99,,2013-02-07 03:42:00,
2013-02-06 21:52:00,39.0,35.0,-100.00,SSW,205,8.0,18.0,86,-99.99,,,-99.99,,2013-02-07 03:52:00,
2013-02-06 22:01:00,39.0,35.0,-100.00,SSW,205,8.0,18.0,86,-99.99,,,-99.99,,2013-02-07 04:01:00,
2013-02-06 22:11:00,39.0,35.0,-100.00,SSW,195,9.0,21.0,86,-99.99,,,-99.99,,2013-02-07 04:11:00,
2013-02-06 22:22:00,39.0,35.0,-100.00,SW,225,11.0,20.0,86,-99.99,,,-99.99,,2013-02-07 04:22:00,
2013-02-06 22:32:00,39.0,35.0,-100.00,SW,225,11.0,20.0,86,-99.99,,,-99.99,,2013-02-07 04:32:00,
2013-02-06 22:41:00,38.0,35.0,-100.00,SW,235,9.0,16.0,87,-99.99,,,-99.99,,2013-02-07 04:41:00,
2013-02-06 22:53:00,38.0,34.0,-100.00,West,260,5.0,13.0,87,-99.99,,,-99.99,,2013-02-07 04:53:00,
2013-02-06 23:02:00,38.0,34.0,-100.00,West,260,5.0,13.0,87,-99.99,,,-99.99,,2013-02-07 05:02:00,
2013-02-06 23:11:00,38.0,35.0,-100.00,WSW,250,8.0,15.0,88,-99.99,,,-99.99,,2013-02-07 05:11:00,
2013-02-06 23:21:00,38.0,35.0,-100.00,WSW,240,6.0,13.0,89,-99.99,,,-99.99,,2013-02-07 05:21:00,
2013-02-06 23:32:00,38.0,35.0,-100.00,WSW,240,6.0,13.0,89,-99.99,,,-99.99,,2013-02-07 05:32:00,
2013-02-06 23:42:00,37.0,35.0,-100.00,West,265,9.0,14.0,90,-99.99,,,-99.99,,2013-02-07 05:42:00,
2013-02-06 23:52:00,37.0,35.0,-100.00,SW,235,8.0,14.0,90,-99.99,,,-99.99,,2013-02-07 05:52:00,